"Pseudo-MPEC" for C5XUMT2

Created 2021 Sep 20 17:07:04 UT using Find_Orb

Click here for an explanation of pseudo-MPECs

 
 Astrometry: 
     C5XUMT2  C2021 08 31F%;pjey.Kc7a#Z\2G_t0Fe[T,GhvnB8M]b=bLNK=iN4#dF$$t4J9F52
     C5XUMT2  C2021 08 31oX=veC58Zw0]96edS.lg11g65J9UtqU7L,oAn)r$f2:+PHmwi%.1F52
     C5XUMT2  C2021 08 31ow'?6\mal*3x`\s/fEg,1\l*_9Md!^YxeS4FOH+cEEM.ervr^XdTF52
     C5XUMT2  C2021 08 31Imihn(!FG.4IUcK:LK9LxH7KxccVM=LQdo?XwtXy)lH8UtR\yEbxF52
     C5XUMT2  C2021 09 04my#E=@!j]'uGwnYNi7Mr)P08$t#a\U/6XTSR0w57s\hgoq0,D(iNF51
     C5XUMT2  C2021 09 04l\R.VVJm13]DgjvQgfC:1\r\FX'OHUu*b^:.a)uD'hXn0D7J`r_-F51
     C5XUMT2  C2021 09 04Q@6SO177IQ/1mm,ktIZ,=j*.n+d/WIpbC,;sqRdA^tR+g_v;b0%TF51
     C5XUMT2  C2021 09 04,g#kQ2I!(1xh'q_3\ZK0gVQ-lhqHmAstrometryL/4Oe;#@Ci?epF51
     C5XUMT2  C2021 09 04jJ]L_/6L?gR4@x\gJk!SF@nIa7lJwecgk\UCcC=a%*eK_K2NA#A!F51
     C5XUMT2  C2021 09 04Y]K97YjJ]yHBea!JLcDQiVd3GeF^7_v9P]Cg\kg$0NZ4T`xx8A.rF51
     C5XUMT2  C2021 09 04,usqAWb'-Vy89B%vgmTRuh@*Or(A:k9f2K.C4i+DhC]eH3,oB8E0F51
     C5XUMT2  C2021 09 04YO_+1EsyC+K+)9t4]1t[3.B)P4N`GWShZRETRB9WMvp!0-qA'-UiF51
     C5XUMT2  C2021 09 12.45894202 35 09.72 -06 51 30.6    ~9CCq 20.27GVNEOCPG96
     C5XUMT2  C2021 09 12.46374102 35 09.82 -06 51 35.7    ~9CCq 20.23GVNEOCPG96
     C5XUMT2  C2021 09 12.46855102 35 09.90 -06 51 40.9    ~9CCq 20.19GVNEOCPG96
     C5XUMT2  C2021 09 12.47335902 35 10.02 -06 51 46.5    ~9CCq 20.41GVNEOCPG96
     C5XUMT2  C2021 09 12.49924 02 35 10.53 -06 52 16.0    ~9D7M 20.2 GVNEOCPG96
     C5XUMT2  C2021 09 12.50150 02 35 10.57 -06 52 18.6    ~9D7M 20.1 GVNEOCPG96
     C5XUMT2  C2021 09 12.50261 02 35 10.61 -06 52 19.7    ~9D7M 20.0 GVNEOCPG96
     C5XUMT2 KC2021 09 13)8s=@Z?w4r?nJV`3g8]B#jnxLU-;^E5U?Itp]F6+K..'I$;6px3sL06
     C5XUMT2 KC2021 09 13i'Lo\Ydt%yOx$o9J_yum-#er-5p@/9!5b7nM1ML:L)rABwArs(OjL06
     C5XUMT2 KC2021 09 13G!w]LqFer[(cOUt#[h)d;Ja8*\0#?:Gf;DIg;I-g*5P4D$k%mtD.L06
     C5XUMT2 KC2021 09 13x+F(g0_,$-M@QvaGFH4*7e[i/;\]_D[jDc1/Ir3VE-auo.AqCc.DL01
     C5XUMT2 KC2021 09 13Dw.94kx2MBWjTf9LyIq-1lV?h'njJliT(6F[M#Y=Wy1]SZ.`EUp?L01
     C5XUMT2 KC2021 09 13wQ[Ev`kebFGRl\Tredacted;s`hjqg!/@6=Z5L*TI\jHXP:wl`xxL01
     C5XUMT2 KC2021 09 13,[R%utolbKU\;M=PyG_#]OKoY?FKYyIe4UD/PnUls1N4^Ed7GIn*L01
     C5XUMT2 KC2021 09 13RtT19T6sS98gI7Py_,EXqsl/?0fZoJfiXx\3h/f(H.+9^^xD)VoVL01
     C5XUMT2 |C2021 09 13$u2Y;FN@3=xeS1ScR5e:@$R$wa2l4KmF*cm2))[E\GREyh0mbhEA807
     C5XUMT2 |C2021 09 13DB(ViFjnnkRW^`GA=]ho)A]m464AZV#7y$[GrLyOdqi\0ySI_N`,807
     C5XUMT2 |C2021 09 13=`BQ[W-_Hac).50bdNYSeR=TpgmyNShvmJ-T/UoL8Xa@%QSXp_O4807
     C5XUMT2 |C2021 09 13mV`yclick*:;rjbvw_R21jDLmdQxq/HW_6J_le8P%S#IoyF1_RwJ807
     C5XUMT2 |C2021 09 13vAwC_NA18ChQZl6LWNW6[Z9P3_;rkmCh4t1NH-_`P'7dM'7_/HuD807
     C5XUMT2 |C2021 09 13(it;Njh@]ebK_syaZ81smOGOf,^h[]herepJ1fS!.M8M5d2b=MC0807
     C5XUMT2 mC2021 09 13.46669802 35 30.79 -07 10 36.4    ~9DC7 20.72GVNEOCPG96
     C5XUMT2 mC2021 09 13.47029702 35 30.84 -07 10 40.4    ~9DC7 20.33GVNEOCPG96
     C5XUMT2 mC2021 09 13.47390802 35 30.92 -07 10 44.7    ~9DC7 20.46GVNEOCPG96
     C5XUMT2 |C2021 09 13O.)w]*L$jdlLG=PY]]4k0Mryk*.1_r;G8*`bQ(/#PL-cckw.U$/oH06
     C5XUMT2 |C2021 09 13dKXu0P61R(omforFXDOg!Ym.vVSscRDrG.C%]-VtbV3U#ES,fTeYH06
     C5XUMT2 KC2021 09 14=;iph-Y@Q+h9NGw[WKSt'A)^f]jSk/f.J0%9=8YID!L#9b4d;.F\204
     C5XUMT2 HC2021 09 14l*#)O0t^v)c,bV$T5'RkC%H7A\U\E!sk`Pt5`nM6QjwmFUH6\[YY204
     C5XUMT2 mC2021 09 14.38385002 35 48.90 -07 28 07.8    ~9EB7 20.25GVNEOCPG96
     C5XUMT2 mC2021 09 14.38694102 35 48.96 -07 28 11.4    ~9EB7 20.24GVNEOCPG96
     C5XUMT2 mC2021 09 14.38980002 35 49.01 -07 28 14.6    ~9EB7 20.47GVNEOCPG96
     C5XUMT2 mC2021 09 14.39289002 35 49.07 -07 28 18.2    ~9EB7 20.31GVNEOCPG96
     C5XUMT2 pC2021 09 15)p?7[d/A:)0TR8D](AQ)vS?2SFg)pgvXAXBPS64D@ViW80.Aaa:ML01
     C5XUMT2 bC2021 09 15o:s\wj#f6Ax2KRI_pGY67r!Ena.iexplanationVIclF-Is_ALrmL01
     C5XUMT2 bC2021 09 15$u,NBfT3#Lh@*=)ssR6?RCiSq(tCA!ONOLn)9K/'M*1k3^?O8qr[L01
     C5XUMT2  C2021 09 18.36035502 36 53.85 -08 45 30.1    ~9I9M 20.36GVNEOCPG96
     C5XUMT2  C2021 09 18.36611902 36 53.91 -08 45 37.2    ~9I9M 20.31GVNEOCPG96
     C5XUMT2  C2021 09 18.37195202 36 53.98 -08 45 44.1    ~9I9M 20.34GVNEOCPG96
     C5XUMT2  C2021 09 18.37773902 36 54.05 -08 45 50.8    ~9I9M 20.33GVNEOCPG96
     C5XUMT2 KC2021 09 19JCcyftgmHpspS2Ac9IG$:4c2S8J$d+).I(NgVp4Yf.O@@q]4@^84104
     C5XUMT2 KC2021 09 19r!%m%)Xdf@3HHT%i^_w3%q^+XxlLyGQGL4Y6!S$I!X(@GfYxT^p8104

Station data:
(104) San Marcello Pistoiese  (N44.063037 E10.804200)  Italy. 0.40-m f/5
   reflector.
(204) Schiaparelli Observatory  (N45.867933 E8.770800)  Italy.  Observer L.
   Buzzi. 0.60-m f/4.64 Newtonian + CCD.
(807) Cerro Tololo Observatory, La Serena  (S30.169136 W70.805900)  Chile.
(F51) Pan-STARRS 1, Haleakala  (N20.707235 W156.255910)  US/Hawaii.
   Observers N. Primak, A. Schultz, S. Watters, J. Thiel, T. Goggia. Measurer
   PS1 Science Consortium. 1.8-m Ritchey-Chrétien + CCD.
(F52) Pan-STARRS 2, Haleakala  (N20.707384 W156.255910)  US/Hawaii. 1.8-m
   Ritchey-Chrétien + CCD.
(G96) Mt. Lemmon Survey  (N32.442754 W110.788720)  US/Arizona.  Observers T.
   A. Pruyne, B. M. Africano, E. J. Christensen, G. A. Farneth, D. C. Fuls,
   A. R. Gibbs, A. D. Grauer, H. Gröller, J. A. Johnson, R. A. Kowalski, S.
   M. Larson, G. J. Leonard, D. Rankin, R. L. Seaman, F. C. Shelly. 1.5-m
   reflector + 10K CCD.
(H06) RAS Observatory, Mayhill  (N32.903325 W105.528700)  US/New
   Mexico.  Observers E. Guido, G. Sostero, V. Gonano, L. Donato.
(L01) Višnjan Observatory, Tičan  (N45.290900 E13.749300)  Croatia.
   Observers K. Korlević, E. Pettarin. Measurer E. Pettarin. 1.0-m f/2.9
   reflector + CCD.
(L06) Sormano 2 Observatory, Bellagio Via Lattea  (N45.970103 E9.254030)
   Italy.

Orbital elements:  C5XUMT2
   Perihelion 2021 Oct 31.839283 +/- 0.138579 TT = 20:08:34 (JD 2459519.339283)
Epoch 2021 Sep 19.0 TT = JDT 2459476.5                        AutoNEOCP
M 357.30761045 +/- 0.0115882        (J2000 ecliptic)
n   0.06284861 +/- 0.000123336      Peri.  220.71984 +/- 0.0421817
a   6.26525734 +/- 0.00819407       Node   176.10548 +/- 0.0075591
e   0.5927238 +/- 0.000464106       Incl.   34.91692 +/- 0.0081991
P  15.68                   H 16.6   G  0.15   U  6.7  
q 2.55168980 +/- 0.000434239    Q 9.97882488 +/- 0.0158898
From 53 observations 2021 Aug. 31-Sept. 19; mean residual 0".26
Residuals in arcseconds: 
210831 F52  .05-  .31+    210912 G96  .30+  .09+    210913 H06  .45+  .33-    
210831 F52  .17-  .28-    210913 L06  .07-  .24-    210913 H06  .30+  .33+    
210831 F52  .06+  .14-    210913 L06  .25-  .02+    210914 204  .24-  .05-    
210831 F52  .19-  .06+    210913 L06  .29-  .24-    210914 204  .78+  .10-    
210904 F51  .14+  .06-    210913 L01  .05+  .08+    210914 G96  .18-  .05+    
210904 F51  .06+  .06+    210913 L01  .49-  .45-    210914 G96  .08-  .01+    
210904 F51  .00   .06+    210913 L01  .02+  .23+    210914 G96  .07-  .10+    
210904 F51  .11+  .09-    210913 L01  .07-  .21+    210914 G96  .03+  .06+    
210904 F51  .26+  .03+    210913 L01  .10-  .52+    210915 L01  1.0-  .54+    
210904 F51  .04+  .03+    210913 807  .26-  .75-    210915 L01  .56-  .35+    
210904 F51  .14+  .08+    210913 807  .01+  .11-    210915 L01  .33-  .16-    
210904 F51  .17+  .05+    210913 807  .04-  .24-    210918 G96  .52+  .26+    
210912 G96  .03-  .23-    210913 807  .03+  .19+    210918 G96  .39+  .02-    
210912 G96  .04+  .10+    210913 807  .21+  .07-    210918 G96  .39+  .01-    
210912 G96  .19-  .35+    210913 807  .28+  .11-    210918 G96  .41+  .14+    
210912 G96  .18+  .19+    210913 G96  .17+  .02-    210919 104  .57-  .38-    
210912 G96  .11+  .03-    210913 G96  .08-  .09+    210919 104  .08-  .03+    
210912 G96  .03+  .07-    210913 G96  .11+  .09-    

Ephemerides (geocentric):
Date (UTC) HH   RA              Dec         delta   r     elong  mag " sig PA
---- -- -- --  -------------   -----------  ------ ------ -----  --- ---- ---
2021 09 20 17  02 37 21.950   -09 32 01.88  1.7402 2.5743 137.8 20.7 .214  71
2021 09 20 18  02 37 22.384   -09 32 51.77  1.7399 2.5743 137.9 20.7 .216  71
2021 09 20 19  02 37 22.815   -09 33 41.67  1.7396 2.5742 137.9 20.7 .218  71
2021 09 20 20  02 37 23.244   -09 34 31.58  1.7394 2.5742 137.9 20.7 .220  71
2021 09 20 21  02 37 23.671   -09 35 21.50  1.7391 2.5741 138.0 20.7 .222  71
2021 09 20 22  02 37 24.095   -09 36 11.43  1.7388 2.5741 138.0 20.7 .224  71
2021 09 20 23  02 37 24.517   -09 37 01.37  1.7386 2.5741 138.0 20.7 .227  71
2021 09 21 00  02 37 24.937   -09 37 51.31  1.7383 2.5740 138.0 20.7 .229  71
2021 09 21 01  02 37 25.354   -09 38 41.27  1.7380 2.5740 138.1 20.7 .231  71
2021 09 21 02  02 37 25.769   -09 39 31.23  1.7377 2.5739 138.1 20.7 .233  72
2021 09 21 03  02 37 26.181   -09 40 21.21  1.7375 2.5739 138.1 20.7 .236  72
2021 09 21 04  02 37 26.591   -09 41 11.19  1.7372 2.5738 138.2 20.7 .238  72
2021 09 21 05  02 37 26.999   -09 42 01.18  1.7369 2.5738 138.2 20.7 .240  72
2021 09 21 06  02 37 27.404   -09 42 51.18  1.7367 2.5737 138.2 20.7 .242  72
2021 09 21 07  02 37 27.807   -09 43 41.19  1.7364 2.5737 138.2 20.7 .245  72
2021 09 21 08  02 37 28.208   -09 44 31.21  1.7361 2.5737 138.3 20.7 .247  72
2021 09 21 09  02 37 28.606   -09 45 21.24  1.7359 2.5736 138.3 20.7 .249  72
2021 09 21 10  02 37 29.002   -09 46 11.27  1.7356 2.5736 138.3 20.7 .252  72
2021 09 21 11  02 37 29.396   -09 47 01.32  1.7353 2.5735 138.4 20.7 .254  72
2021 09 21 12  02 37 29.787   -09 47 51.37  1.7351 2.5735 138.4 20.7 .256  72
2021 09 21 13  02 37 30.176   -09 48 41.43  1.7348 2.5734 138.4 20.7 .259  72
2021 09 21 14  02 37 30.563   -09 49 31.50  1.7345 2.5734 138.4 20.7 .261  72
2021 09 21 15  02 37 30.947   -09 50 21.58  1.7343 2.5733 138.5 20.7 .263  72
2021 09 21 16  02 37 31.329   -09 51 11.67  1.7340 2.5733 138.5 20.7 .266  72
2021 09 21 17  02 37 31.708   -09 52 01.76  1.7338 2.5732 138.5 20.7 .268  72
2021 09 21 18  02 37 32.085   -09 52 51.87  1.7335 2.5732 138.6 20.7 .270  72
2021 09 21 19  02 37 32.460   -09 53 41.98  1.7332 2.5732 138.6 20.7 .273  72
2021 09 21 20  02 37 32.832   -09 54 32.10  1.7330 2.5731 138.6 20.7 .275  72
2021 09 21 21  02 37 33.202   -09 55 22.23  1.7327 2.5731 138.6 20.7 .277  72
2021 09 21 22  02 37 33.570   -09 56 12.37  1.7324 2.5730 138.7 20.7 .280  72
2021 09 21 23  02 37 33.935   -09 57 02.51  1.7322 2.5730 138.7 20.7 .282  72
2021 09 22 00  02 37 34.298   -09 57 52.66  1.7319 2.5729 138.7 20.7 .285  72
2021 09 22 01  02 37 34.659   -09 58 42.82  1.7317 2.5729 138.7 20.6 .287  72
2021 09 22 02  02 37 35.017   -09 59 32.99  1.7314 2.5729 138.8 20.6 .289  72
2021 09 22 03  02 37 35.373   -10 00 23.17  1.7312 2.5728 138.8 20.6 .292  72
2021 09 22 04  02 37 35.727   -10 01 13.35  1.7309 2.5728 138.8 20.6 .294  72
2021 09 22 05  02 37 36.078   -10 02 03.55  1.7306 2.5727 138.9 20.6 .297  72
2021 09 22 06  02 37 36.427   -10 02 53.75  1.7304 2.5727 138.9 20.6 .299  72
2021 09 22 07  02 37 36.773   -10 03 43.95  1.7301 2.5726 138.9 20.6 .302  72
2021 09 22 08  02 37 37.117   -10 04 34.17  1.7299 2.5726 138.9 20.6 .304  72
2021 09 22 09  02 37 37.459   -10 05 24.39  1.7296 2.5725 139.0 20.6 .307  72
2021 09 22 10  02 37 37.799   -10 06 14.62  1.7293 2.5725 139.0 20.6 .309  72
2021 09 22 11  02 37 38.136   -10 07 04.86  1.7291 2.5725 139.0 20.6 .312  72
2021 09 22 12  02 37 38.470   -10 07 55.10  1.7288 2.5724 139.1 20.6 .314  72
2021 09 22 13  02 37 38.803   -10 08 45.36  1.7286 2.5724 139.1 20.6 .317  72
2021 09 22 14  02 37 39.133   -10 09 35.62  1.7283 2.5723 139.1 20.6 .319  72
2021 09 22 15  02 37 39.460   -10 10 25.88  1.7281 2.5723 139.1 20.6 .322  72
2021 09 22 16  02 37 39.786   -10 11 16.16  1.7278 2.5722 139.2 20.6 .324  72